N5ZKK Weather Reports


Display with metric or nautical units.
time (UTC)temp
F
wind
direction
speed
MPH
gust
MPH
rain 1hr
in
rain 24hr
in
rain mn
in
humidity
%
barometer
mb
20260508231525 78 145 5.0 8.0 0.00 0.00 0.00 79 1011.7
20260508230526 78 141 5.0 8.0 0.00 0.00 0.00 78 1011.8
20260508225523 78 154 4.0 7.0 0.00 0.00 0.00 79 1011.7
20260508225513 78 165 4.0 6.0 0.00 0.00 0.00 79 1009.1
20260508224525 78 176 5.0 9.0 0.00 0.00 0.00 79 1011.8
20260508223527 78 172 5.0 7.0 0.00 0.00 0.00 78 1011.8
20260508222530 78 176 4.0 7.0 0.00 0.00 0.00 79 1011.8
20260508222513 78 181 4.0 6.0 0.00 0.00 0.00 79 1009.1
20260508221552 78 164 4.0 7.0 0.00 0.00 0.00 79 1011.7
20260508220516 78 150 4.0 5.0 0.00 0.00 0.00 78 1011.9
20260508215538 78 140 4.0 6.0 0.00 0.00 0.00 79 1011.9
20260508215513 78 165 4.0 7.0 0.00 0.00 0.00 79 1009.3
20260508214521 78 169 5.0 6.0 0.00 0.00 0.00 78 1012.0
20260508213537 78 159 6.0 10.0 0.00 0.00 0.00 78 1012.0
20260508212525 79 122 3.0 4.0 0.00 0.00 0.00 77 1012.1
20260508212513 78 160 3.0 5.0 0.00 0.00 0.00 77 1009.6
20260508211527 79 157 5.0 8.0 0.00 0.00 0.00 77 1012.2
20260508210529 79 142 6.0 10.0 0.00 0.00 0.00 76 1012.4
20260508205532 79 185 5.0 9.0 0.00 0.00 0.00 76 1012.4
20260508205513 78 177 4.0 7.0 0.00 0.00 0.00 76 1009.8
20260508204536 79 166 4.0 7.0 0.00 0.00 0.00 76 1012.6
20260508203518 79 159 5.0 7.0 0.00 0.00 0.00 76 1012.6
20260508202520 79 163 4.0 7.0 0.00 0.00 0.00 77 1012.6
20260508202513 79 134 4.0 8.0 0.00 0.00 0.00 76 1010.0
20260508201522 79 165 5.0 8.0 0.00 0.00 0.00 76 1012.7
20260508200525 80 195 4.0 6.0 0.00 0.00 0.00 74 1012.8
20260508195527 80 169 4.0 7.0 0.00 0.00 0.00 75 1013.0
20260508195513 78 125 3.0 7.0 0.00 0.00 0.00 78 1010.3
20260508194529 79 187 5.0 7.0 0.00 0.00 0.00 78 1013.1
20260508193531 79 155 5.0 7.0 0.00 0.00 0.00 77 1013.1
20260508192555 79 185 5.0 8.0 0.00 0.00 0.00 77 1013.1
20260508192513 79 189 4.0 7.0 0.00 0.00 0.00 76 1010.4
20260508191517 80 154 3.0 6.0 0.00 0.00 0.00 77 1013.2
20260508190519 79 121 4.0 6.0 0.00 0.00 0.00 79 1013.3
20260508185536 79 188 4.0 7.0 0.00 0.00 0.00 78 1013.3
20260508185513 78 161 3.0 4.0 0.00 0.00 0.00 77 1010.7
20260508184524 78 167 2.0 3.0 0.00 0.00 0.00 77 1013.5
20260508183601 78 51 3.0 5.0 0.00 0.00 0.00 78 1013.8
20260508182524 76 61 2.0 6.0 0.00 0.00 0.00 80 1014.0
20260508182513 75 96 3.0 6.0 0.00 0.00 0.00 80 1011.8
20260508181526 76 182 4.0 6.0 0.00 0.00 0.00 79 1014.1
20260508180527 77 148 4.0 7.0 0.00 0.00 0.00 77 1014.1
20260508175530 77 137 4.0 6.0 0.00 0.00 0.00 79 1014.3
20260508175513 75 157 3.0 6.0 0.00 0.00 0.00 79 1011.9
20260508174532 76 163 4.0 8.0 0.00 0.00 0.00 79 1014.5
20260508173516 77 177 2.0 3.0 0.00 0.00 0.00 78 1014.5
20260508172519 77 167 3.0 7.0 0.00 0.00 0.00 77 1014.6
20260508172513 77 214 2.0 4.0 0.00 0.00 0.00 76 1012.1
20260508171521 78 141 4.0 7.0 0.00 0.00 0.00 76 1014.7
20260508170523 76 76 4.0 5.0 0.00 0.00 0.00 78 1015.0
20260508165525 75 157 3.0 5.0 0.00 0.00 0.00 80 1015.2
20260508165513 73 172 2.0 4.0 0.00 0.00 0.00 82 1013.2
20260508164527 72 99 3.0 6.0 0.00 0.00 0.00 84 1015.4
20260508163523 72 175 3.0 5.0 0.00 0.00 0.00 81 1015.3
20260508162519 73 165 3.0 4.0 0.00 0.00 0.00 81 1015.4
20260508162513 71 142 3.0 4.0 0.00 0.00 0.00 82 1013.7
20260508161515 71 162 2.0 4.0 0.00 0.00 0.00 83 1015.6
20260508160518 70 171 3.0 5.0 0.00 0.00 0.00 85 1015.9
20260508155519 68 163 2.0 4.0 0.00 0.00 0.00 87 1016.2
20260508155513 67 159 2.0 4.0 0.00 0.00 0.00 87 1014.8
20260508154522 68 176 2.0 3.0 0.00 0.00 0.00 87 1016.2
20260508153524 67 130 2.0 3.0 0.00 0.00 0.00 88 1016.4
20260508152526 66 0.0 0.0 0.00 0.00 0.00 89 1016.5
20260508152513 65 62 1.0 3.0 0.00 0.00 0.00 89 1015.4
20260508151528 66 21 2.0 3.0 0.00 0.00 0.00 89 1016.6
20260508150530 66 10 1.0 3.0 0.00 0.00 0.00 89 1016.6
20260508145532 65 90 1.0 3.0 0.00 0.00 0.00 91 1016.8
20260508145513 64 204 1.0 2.0 0.00 0.00 0.00 92 1015.7
20260508144517 64 174 2.0 3.0 0.00 0.00 0.00 92 1016.8
20260508143538 64 163 1.0 3.0 0.00 0.00 0.00 92 1016.9
20260508142521 64 176 1.0 2.0 0.00 0.00 0.00 92 1016.9
20260508142513 63 193 1.0 2.0 0.00 0.00 0.00 91 1015.9
20260508141523 64 224 2.0 3.0 0.00 0.00 0.00 92 1016.9
20260508140525 63 186 2.0 3.0 0.00 0.00 0.00 92 1016.9
20260508135521 63 0.0 0.0 0.00 0.00 0.00 93 1016.6
20260508135513 62 0 0.0 0.0 0.00 0.00 0.00 94 1015.7
20260508134517 62 0.0 0.0 0.00 0.00 0.00 95 1016.6
20260508133531 61 0.0 0.0 0.00 0.00 0.00 96 1016.6
20260508132518 61 17 1.0 3.0 0.00 0.00 0.00 97 1016.6
20260508132513 60 40 0.0 2.0 0.00 0.00 0.00 97 1015.9
20260508131518 61 24 1.0 2.0 0.00 0.00 0.00 98 1016.6
20260508130520 61 0.0 0.0 0.00 0.00 0.00 98 1016.6
20260508125522 60 0.0 0.0 0.00 0.00 0.00 98 1016.6
20260508125513 60 90 0.0 1.0 0.00 0.00 0.00 98 1016.0
20260508124524 60 17 2.0 3.0 0.00 0.00 0.00 98 1016.6
20260508123546 60 50 1.0 4.0 0.00 0.00 0.00 98 1016.6
20260508122528 60 113 0.0 2.0 0.00 0.00 0.00 98 1016.5
20260508122513 59 67 0.0 2.0 0.00 0.00 0.00 98 1015.8
20260508121531 60 36 2.0 3.0 0.00 0.00 0.00 97 1016.4
20260508120533 60 93 2.0 4.0 0.00 0.00 0.00 97 1016.6
20260508115517 60 71 1.0 3.0 0.00 0.00 0.00 96 1016.9
20260508115513 60 157 1.0 3.0 0.00 0.00 0.00 96 1016.3
20260508114519 60 97 1.0 3.0 0.00 0.00 0.00 96 1017.1
20260508113521 60 123 2.0 4.0 0.00 0.00 0.00 95 1016.9
20260508112544 61 110 2.0 5.0 0.00 0.00 0.00 94 1016.8
20260508112513 60 114 1.0 3.0 0.00 0.00 0.00 94 1016.0
20260508111540 61 136 2.0 4.0 0.00 0.00 0.00 93 1016.6
20260508110516 61 98 1.0 5.0 0.00 0.00 0.00 93 1016.8
20260508105551 61 145 1.0 3.0 0.00 0.00 0.00 94 1016.8
20260508105513 60 157 0.0 2.0 0.00 0.00 0.00 94 1016.1
20260508104533 61 146 0.0 2.0 0.00 0.00 0.00 94 1016.8
20260508103517 61 0.0 0.0 0.00 0.00 0.00 93 1016.7
20260508102519 61 68 1.0 2.0 0.00 0.00 0.00 93 1016.6
20260508102513 60 0 0.0 0.0 0.00 0.00 0.00 93 1016.0
20260508101522 61 0.0 0.0 0.00 0.00 0.00 93 1016.6
20260508100524 61 0.0 0.0 0.00 0.00 0.00 92 1016.6
20260508095526 61 0.0 0.0 0.00 0.00 0.00 92 1016.9
20260508095513 60 72 1.0 2.0 0.00 0.00 0.00 91 1016.2
20260508094528 61 45 0.0 3.0 0.00 0.00 0.00 91 1016.8
20260508093551 61 59 1.0 3.0 0.00 0.00 0.00 91 1016.9
20260508092515 61 23 0.0 2.0 0.00 0.00 0.00 90 1016.9
20260508092513 60 0 0.0 0.0 0.00 0.00 0.00 90 1016.3
20260508091537 61 0.0 0.0 0.00 0.00 0.00 90 1017.0
20260508090520 61 51 1.0 2.0 0.00 0.00 0.00 89 1016.6
20260508085522 61 69 1.0 3.0 0.00 0.00 0.00 89 1016.8
20260508085513 60 45 1.0 2.0 0.00 0.00 0.00 89 1016.1
20260508084524 61 73 2.0 3.0 0.00 0.00 0.00 89 1016.8
20260508083520 61 145 3.0 5.0 0.00 0.00 0.00 89 1016.7
20260508082517 61 126 1.0 3.0 0.00 0.00 0.00 89 1016.7
20260508082513 60 113 1.0 2.0 0.00 0.00 0.00 89 1016.3
20260508081531 61 106 0.0 2.0 0.00 0.00 0.00 89 1016.9
20260508080553 61 42 1.0 3.0 0.00 0.00 0.00 89 1017.1
20260508075517 61 0.0 0.0 0.00 0.00 0.00 89 1017.1
20260508075513 61 0 0.0 0.0 0.00 0.00 0.00 89 1016.5
20260508074539 61 44 1.0 2.0 0.00 0.00 0.00 89 1017.3
20260508073521 61 63 1.0 2.0 0.00 0.00 0.00 88 1017.4
20260508072525 61 0.0 0.0 0.00 0.00 0.00 88 1017.5
20260508072513 61 22 0.0 1.0 0.00 0.00 0.00 87 1016.8
20260508071526 61 0.0 0.0 0.00 0.00 0.00 87 1017.5
20260508070528 61 107 1.0 3.0 0.00 0.00 0.00 87 1017.4
20260508065530 61 158 0.0 1.0 0.00 0.00 0.00 87 1017.5
20260508065513 61 112 0.0 1.0 0.00 0.00 0.00 87 1016.8
20260508064532 61 0.0 0.0 0.00 0.00 0.00 87 1017.6
20260508063516 61 0.0 0.0 0.00 0.00 0.00 86 1017.5
20260508062538 61 50 2.0 3.0 0.00 0.00 0.00 86 1017.3
20260508062513 61 52 0.0 1.0 0.00 0.00 0.00 87 1016.5
20260508061520 61 270 0.0 1.0 0.00 0.00 0.00 87 1017.2
20260508060543 61 41 2.0 3.0 0.00 0.00 0.00 87 1017.0
20260508055539 61 355 2.0 4.0 0.00 0.00 0.00 86 1017.0
20260508055513 61 6 2.0 3.0 0.00 0.00 0.00 86 1016.3
20260508054515 61 22 2.0 3.0 0.00 0.00 0.00 86 1017.4
20260508053529 61 0.0 0.0 0.00 0.00 0.00 86 1017.8
20260508052531 61 90 0.0 2.0 0.00 0.00 0.00 85 1018.0
20260508052513 61 0 0.0 0.0 0.00 0.00 0.00 85 1017.5
20260508051515 61 0.0 0.0 0.00 0.00 0.00 86 1018.1
20260508050538 61 0.0 0.0 0.00 0.00 0.00 85 1018.1
20260508045520 61 0.0 0.0 0.00 0.00 0.00 86 1018.3
20260508045513 61 251 0.0 2.0 0.00 0.00 0.00 86 1017.5
20260508044522 61 283 1.0 3.0 0.00 0.00 0.00 86 1017.7
20260508043544 61 34 2.0 4.0 0.00 0.00 0.00 85 1018.1
20260508042527 62 0.0 0.0 0.00 0.00 0.00 85 1018.2
20260508042513 61 22 1.0 3.0 0.00 0.00 0.00 85 1017.4
20260508041609 62 75 2.0 4.0 0.00 0.00 0.00 85 1018.1
20260508040531 62 0.0 0.0 0.00 0.00 0.00 84 1018.5
20260508035535 62 32 1.0 2.0 0.00 0.00 0.00 85 1018.7
20260508035513 61 293 2.0 4.0 0.00 0.00 0.00 85 1018.1
20260508034517 61 271 1.0 5.0 0.00 0.00 0.00 85 1018.1
20260508033519 61 343 1.0 3.0 0.00 0.00 0.00 86 1017.4
20260508032522 61 296 2.0 5.0 0.00 0.00 0.00 86 1016.7
20260508032513 61 255 2.0 3.0 0.00 0.00 0.00 86 1015.4
20260508031518 61 87 4.0 6.0 0.00 0.00 0.00 86 1016.1
20260508030526 62 26 2.0 5.0 0.00 0.00 0.00 85 1018.1
20260508025548 62 5 1.0 3.0 0.00 0.00 0.00 85 1017.6
20260508025513 61 135 0.0 2.0 0.00 0.00 0.00 85 1016.9
20260508024530 62 98 2.0 3.0 0.00 0.00 0.00 85 1018.5
20260508023533 62 0.0 0.0 0.00 0.00 0.00 85 1018.1
20260508022517 62 0.0 0.0 0.00 0.00 0.00 84 1018.1
20260508022513 61 108 0.0 2.0 0.00 0.00 0.00 84 1017.5
20260508021519 62 85 1.0 2.0 0.00 0.00 0.00 83 1018.2
20260508020541 62 0.0 0.0 0.00 0.00 0.00 83 1018.3
20260508015523 62 258 1.0 3.0 0.00 0.00 0.00 83 1018.0
20260508015513 61 268 0.0 1.0 0.00 0.00 0.00 84 1017.1
20260508014526 62 0.0 0.0 0.00 0.00 0.00 85 1017.3
20260508013528 62 20 2.0 3.0 0.00 0.00 0.00 84 1017.4
20260508012530 62 191 2.0 3.0 0.00 0.00 0.00 84 1017.5
20260508012513 61 341 0.0 1.0 0.00 0.00 0.00 84 1016.7
20260508011532 62 277 4.0 8.0 0.00 0.00 0.00 85 1017.5
20260508010516 62 95 3.0 5.0 0.00 0.00 0.00 84 1016.4
20260508005518 62 12 1.0 3.0 0.00 0.00 0.00 83 1017.4
20260508005513 62 351 1.0 3.0 0.00 0.00 0.00 83 1016.3
20260508004521 62 261 3.0 5.0 0.00 0.00 0.00 83 1016.9
20260508003517 63 236 1.0 3.0 0.00 0.00 0.00 84 1016.5
20260508002545 62 42 2.0 3.0 0.00 0.00 0.00 83 1016.5
20260508002513 62 76 0.0 1.0 0.00 0.00 0.00 83 1015.8
20260508001527 62 23 0.0 1.0 0.00 0.00 0.00 82 1016.6
20260508000530 62 43 2.0 4.0 0.00 0.00 0.00 83 1016.4
20260507235533 62 39 2.0 5.0 0.00 0.00 0.00 83 1016.6
20260507235513 62 14 2.0 4.0 0.00 0.00 0.00 83 1015.8
20260507234515 62 55 5.0 9.0 0.00 0.00 0.00 83 1016.8
20260507233519 62 55 3.0 5.0 0.00 0.00 0.00 84 1017.3
20260507232520 62 68 2.0 4.0 0.00 0.00 0.00 85 1017.6
20260507232513 62 11 2.0 4.0 0.00 0.00 0.00 85 1017.0